Zurück zum Katalog

STARLINK-31080

AktivKommunikationVLEO
NORAD 58603·PAYLOAD·🇺🇸 United States

Gestartet Dec 19, 2023 von Cape Canaveral Space Force Station

Loading…

Nächste Überflüge (nächste 24 Stunden)

TLE

AktuellSource: CelesTrak SupGP

Epoche: Sep 14, 2026, 21:02 UTC

1 58603C 23200Q   26257.87687500 -.00016109  00000+0 -58331-3 0  2570
2 58603  43.0010 180.2500 0001288 267.5765 197.0097 15.27596192    16

Verfolge STARLINK-31080 in Echtzeit mit AllMySat

Download on the App Store